sat.trackr.live / text

‹ back to catalog

STARLINK-32525

NORAD 62121 · 2024-222H

PAYLOAD ACTIVE UNKNOWN

§ Identity

Operator
Country
US
Launch date
2024-11-27
Launch site
AFETR
Launch vehicle
Mass (kg)
RCS (m²)

Purposes: comms

External: N2YO · Heavens-Above · Gunter

§ Orbital elements

Epoch: 2026-09-21T22:10:07.906368Z

Period
94.27 min
Inclination
42.9992°
Eccentricity
0.0000740
Mean motion
15.27601878 rev/d
Perigee alt
482.5 km
Apogee alt
483.5 km
Semi-major
6,861.1 km
B*
7.2311e-4
RAAN
107.6797°
Arg perigee
273.5027°
Mean anomaly
86.5740°
Rev number
10,277

§ Raw data

STARLINK-325251 62121U 24222H   26264.92370262  .00019703  00000+0  72311-3 0  99912 62121  42.9992 107.6797 0000740 273.5027  86.5740 15.27601878102775

JSON: /api/v1/satellites/62121 · /tle

For live sub-satellite position, see the globe view (requires WebGL).

§ Visibility from observer

Set your observer location to see the next 7 days of passes ≥ 10°. The values pass through the URL so the page stays shareable.

No JS? Fill the form by hand. The geolocation button needs JavaScript.